SCP
0 0 0 0 0 0 0 0 0 0 0 0 0 0 0 0 0 0 0 0 0 0 0 0 0 0 0 0 0 0 0 0 -0 -0 -0 -0 -0 0 0 0 0 0 0
0 0 0 0 0 0 0 0 0 0 0 0 0 0 0 0 0 0 0 0 0 0 0 0 0 0 0 0 0 0 0 0 0 -0 -0 -0 -0 0 0 0 0 0 0
0 0 0 0 0 0 0 0 0 0 0 0 0 0 0 0 0 0 0 0 0 0 0 0 0 0 0 0 0 0 0 0 0 -0 -0 -0 -0 0 0 0 0 0 0
0 0 0 0 0 0 0 0 0 0 0 0 0 0 0 0 0 0 0 0 0 0 0 0 0 0 0 0 0 0 0 0 0 0 -0 0 0 0 0 0 0 0 0
0 0 0 0 0 0 0 0 0 0 0 0 0 0 0 0 0 0 0 0 0 0 0 0 0 0 0 0 0 0 0 0 0 0 0 0 0 0 0 0 0 0 0
0 0 0 0 0 0 0 0 0 0 0 0 0 0 0 0 0 0 0 0 0 0 0 0 0 0 0 0 0 0 0 0 0 0 0 0 0 0 0 0 0 0 0
0 0 0 0 0 0 0 0 0 0 0 0 0 0 0 0 0 0 0 0 0 0 0 0 0 0 0 0 0 0 0 0 0 0 0 0 0 0 0 0 0 0 0
0 0 0 0 0 0 0 0 0 0 0 0 0 0 0 0 0 0 0 0 0 0 0 0 0 0 0 0 0 0 0 0 0 0 0 0 0 0 0 0 0 0 0
0 0 0 0 0 0 0 0 0 0 0 0 0 0 0 0 0 0 0 0 0 0 0 0 0 0 0 0 0 0 0 0 0 0 0 0 0 0 0 0 0 0 0
0 0 0 0 0 0 0 0 0 0 0 0 0 0 0 0 0 0 0 0 0 0 0 0 0 0 0 0 0 0 0 0 0 0 0 0 0 0 0 0 0 0 0
0 0 0 0 0 0 0 0 0 0 0 0 0 0 0 0 0 0 0 0 0 0 0 0 0 0 0 0 0 0 0 0 0 0 0 0 0 0 0 0 0 0 0
0 0 0 0 0 0 0 0 0 0 0 0 0 0 0 0 0 0 0 0 0 0 0 0 0 0 0 0 0 0 0 0 0 0 0 0 0 0 0 0 0 0 0
0 0 0 0 0 0 0 0 0 0 0 0 0 0 0 0 0 0 0 0 0 0 0 0 0 0 0 0 0 0 0 0 0 0 0 0 0 0 0 0 0 0 0
0 0 0 0 0 0 0 0 0 0 0 0 0 0 0 0 0 0 0 0 0 0 0 0 0 0 0 0 0 0 0 0 0 0 0 0 0 0 0 0 0 0 0
0 0 0 0 0 0 0 0 0 0 0 0 0 0 0 0 0 0 0 0 0 0 0 0 0 -0 0 0 0 0 0 0 0 0 0 0 0 0 0 0 0 0 0
0 0 0 0 0 0 0 0 0 0 0 0 0 0 0 0 0 0 0 0 0 0 0 0 0 -0 0 0 0 0 0 0 0 0 0 0 0 0 0 0 0 0 0
0 0 0 0 0 0 0 0 0 0 0 0 0 0 0 0 0 0 0 0 0 0 0 0 0 0 0 0 0 0 0 0 0 0 0 0 0 0 0 0 0 0 0
0 0 0 0 0 0 0 0 0 0 0 0 0 0 0 0 0 0 0 0 0 0 0 0 0 0 0 0 0 0 0 0 0 0 0 0 0 0 0 0 0 0 0
0 0 0 0 0 0 0 0 0 0 0 0 0 0 0 0 0 0 0 0 0 0 0 0 0 0 0 0 0 0 0 0 0 0 0 0 0 0 0 0 0 0 0
0 0 0 0 0 0 0 0 0 0 0 0 0 0 0 0 0 0 0 0 0 0 0 0 0 0 0 0 0 0 0 0 0 0 0 0 0 0 0 0 0 0 0
0 0 0 0 0 0 0 0 0 0 0 0 0 0 0 0 0 0 0 0 0 0 0 0 0 0 0 0 0 0 0 0 0 0 0 0 0 0 0 0 0 0 0
0 0 0 0 0 0 0 0 0 0 0 0 0 0 0 0 0 0 0 0 0 0 0 0 0 0 0 0 0 0 0 0 0 0 0 0 0 0 0 0 0 0 0
0 0 0 0 0 0 0 0 0 0 0 0 0 0 0 0 0 0 0 0 0 0 0 0 0 0 0 0 0 0 0 0 0 0 -0 0 0 0 0 0 0 0 0
0 0 0 0 0 0 0 0 0 0 0 0 0 0 0 0 0 0 0 0 0 0 0 0 0 0 0 0 0 0 0 0 0 0 0 0 0 0 0 0 0 0 0
0 0 0 0 0 0 0 0 0 0 0 0 0 0 0 0 0 0 0 0 0 0 0 0 0 0 0 0 0 0 0 0 0 0 0 0 0 0 0 0 0 0 0
0 0 0 0 0 0 0 0 0 0 0 0 0 0 0 0 0 0 0 0 0 0 0 0 0 0 0 0 0 0 0 0 0 0 0 0 0 0 0 0 0 0 0
Wind_Speed
3 3 1 2 3 4 5 5 7 7 6 5 6 6 6 6 5 5 7 9 9 9 8 7 7 7 7 8 9 9 10 8 9 9 12 10 9 6 6 6 6 6 9
3 3 1 1 3 4 5 6 7 7 7 5 5 4 6 5 5 6 7 8 9 10 9 8 8 7 7 8 9 9 7 7 7 8 10 8 6 6 9 7 6 7 8
6 3 2 1 3 4 6 7 7 7 7 7 5 6 4 4 4 5 5 7 10 10 9 9 8 8 6 7 9 8 8 9 7 5 5 7 7 11 6 6 6 8 9
4 3 1 1 2 4 5 6 7 7 7 7 7 8 8 7 7 6 7 9 9 10 10 10 9 8 8 8 9 8 8 8 8 6 4 6 8 8 8 6 5 8 10
4 3 1 1 2 4 5 5 6 6 7 7 7 7 6 6 7 8 8 8 7 8 10 10 8 8 8 8 9 9 8 7 8 7 7 7 7 8 8 11 9 9 7
4 3 2 2 3 4 5 5 6 7 7 8 8 7 8 9 11 11 9 8 7 6 9 11 8 9 9 9 10 8 9 8 9 8 7 7 7 7 8 10 12 11 9
4 2 1 2 3 5 5 6 7 8 8 8 8 8 8 8 9 11 10 10 9 8 10 11 9 9 9 10 9 9 9 9 9 8 7 7 8 8 9 10 10 11 9
4 2 1 1 3 5 5 6 7 8 8 8 8 8 7 6 7 9 10 10 9 10 11 11 12 12 12 12 10 9 9 8 8 10 9 8 8 8 8 9 9 10 7
4 3 1 1 3 4 5 6 7 8 8 9 9 8 8 8 9 10 9 8 9 11 12 13 13 13 13 12 11 8 9 9 9 9 10 8 8 7 8 8 8 8 9
4 3 1 1 2 4 5 6 6 7 8 8 8 9 9 9 9 9 10 11 11 12 13 13 14 14 14 13 11 10 9 10 10 9 9 9 8 7 7 7 7 7 8
5 3 1 1 3 4 5 6 6 7 7 8 8 8 9 9 9 9 10 11 11 12 13 14 15 15 15 13 12 11 12 11 11 10 9 10 10 8 7 7 7 6 6
5 3 1 1 3 4 5 6 6 7 7 7 8 8 9 9 9 10 11 11 12 12 13 14 15 15 16 14 14 13 12 11 11 11 10 10 8 9 7 6 6 6 6
5 2 1 2 3 4 5 6 6 7 7 7 8 8 9 9 10 10 11 11 12 12 13 14 15 16 16 15 13 11 11 11 10 10 9 9 9 8 6 6 5 5 5
5 3 2 2 3 4 5 6 6 6 7 7 8 8 9 9 10 10 11 11 11 12 13 14 15 16 16 15 11 11 11 9 9 7 7 7 7 7 7 5 4 4 5
5 4 3 3 3 4 5 5 6 6 7 7 8 8 8 9 9 10 10 11 11 13 13 14 15 16 15 14 11 9 12 11 10 8 7 7 10 11 7 5 4 4 4
6 5 4 3 4 4 5 5 6 6 6 7 7 8 8 9 9 9 9 10 11 11 12 13 14 16 15 23 25 17 12 13 13 11 9 9 10 15 16 16 16 13 8
6 6 5 4 4 4 4 5 6 6 6 7 7 8 8 9 9 10 10 10 10 11 12 12 13 15 18 27 25 25 13 12 12 12 10 9 11 12 10 14 16 15 17
7 6 4 4 3 3 4 4 5 6 6 7 7 8 8 9 9 9 9 9 8 9 9 10 12 13 18 26 24 23 13 10 12 12 11 10 10 11 12 9 9 8 9
6 5 4 4 3 3 3 4 5 5 6 7 7 8 8 9 9 9 9 8 7 8 8 10 11 12 16 23 23 19 8 10 11 12 13 12 9 19 19 12 10 9 8
5 5 4 3 3 3 2 4 5 6 6 7 8 8 8 8 9 9 8 6 7 8 10 11 10 11 12 20 22 17 6 8 9 9 11 17 17 20 19 10 9 9 8
6 5 4 3 3 3 2 4 5 6 7 7 8 8 8 8 8 7 6 8 8 9 9 10 10 9 11 16 20 19 6 7 8 8 8 9 20 20 20 16 9 13 11
6 6 4 4 3 2 2 4 6 6 6 7 8 8 8 7 8 7 8 8 8 8 8 8 9 7 8 12 15 18 15 11 6 7 6 8 19 19 19 14 16 19 14
7 5 5 4 3 3 3 5 6 6 7 7 8 8 9 7 7 7 8 8 7 7 8 7 7 7 7 8 15 14 13 13 6 5 12 14 16 15 12 17 19 14 9
7 5 5 4 4 4 4 5 6 5 6 7 8 8 8 8 7 6 6 7 7 8 8 7 7 7 7 7 6 5 4 6 5 4 8 12 13 11 12 12 10 8 8
6 6 5 5 5 4 4 5 4 4 6 7 7 8 8 7 7 7 6 8 7 10 11 7 6 8 8 11 16 9 4 2 2 2 2 3 4 5 6 6 6 7 7
7 6 6 6 5 4 5 5 4 4 5 6 7 6 6 7 7 8 9 12 13 17 17 16 15 11 16 20 18 16 13 12 10 4 2 3 3 4 5 5 6 6 7
Wind_Direction
166 152 139 350 336 329 331 340 354 353 354 350 346 336 332 324 321 322 328 326 325 325 320 326 321 322 323 321 321 322 320 322 324 317 316 298 285 287 319 312 311 336 342
175 188 203 335 329 328 336 350 355 348 347 340 325 311 311 305 307 312 313 317 322 323 327 325 320 317 318 317 320 320 318 321 333 321 320 317 316 347 322 310 322 349 341
189 201 229 303 329 336 343 351 342 339 335 332 326 325 308 301 314 320 315 321 321 320 317 317 315 314 313 313 314 310 320 320 319 316 309 319 324 324 293 309 334 343 337
176 190 216 310 340 339 342 342 335 331 330 334 336 337 342 332 325 321 317 318 317 316 317 317 313 311 312 308 308 321 309 309 315 314 287 290 298 301 310 313 323 332 329
171 174 156 39 5 348 340 334 330 328 330 335 334 331 324 312 315 317 315 315 313 311 315 316 312 312 310 304 302 304 300 301 300 301 298 296 292 275 290 302 317 321 316
163 144 94 40 357 344 338 335 334 330 332 333 330 325 319 319 324 326 323 323 319 313 312 317 313 310 307 304 302 297 296 295 293 292 291 293 294 297 295 296 308 312 314
158 147 80 0 340 339 339 338 338 332 329 329 326 320 316 316 319 323 325 325 324 322 316 316 313 310 305 303 300 299 296 291 289 288 287 284 282 284 287 290 298 303 305
159 154 139 337 327 336 340 337 334 328 326 326 323 315 316 321 319 319 320 319 318 315 310 315 312 308 305 305 299 296 292 291 289 290 287 285 281 279 282 286 295 300 298
164 159 153 335 335 337 334 330 327 324 323 321 320 317 325 324 321 319 316 315 315 317 320 315 312 309 306 302 297 290 288 287 285 284 283 280 281 279 280 280 282 290 300
167 162 173 321 332 331 324 325 323 318 313 317 322 334 326 321 320 319 319 319 318 317 317 317 315 313 310 306 301 295 289 288 286 284 281 281 281 282 279 278 277 274 282
175 177 200 312 332 329 325 323 320 316 316 319 321 323 321 321 321 321 320 320 318 320 321 319 318 316 313 310 304 297 293 289 288 287 285 284 285 283 280 277 274 276 278
165 169 185 329 331 324 320 318 315 314 314 317 321 322 321 322 323 322 321 322 322 322 322 322 321 321 321 317 311 302 299 293 289 289 288 289 292 291 287 283 282 282 279
164 169 208 309 311 311 312 310 310 312 313 320 322 321 321 323 323 322 323 325 325 324 326 327 326 325 325 324 320 312 302 295 290 290 289 292 294 293 293 296 294 289 293
176 188 225 273 290 298 301 304 308 313 320 325 322 321 322 322 321 323 325 327 327 327 329 329 328 328 328 328 330 334 331 323 316 307 302 304 306 299 293 301 312 311 309
195 204 222 253 279 293 299 303 309 316 322 323 321 319 318 319 321 324 325 326 329 332 330 331 332 334 333 336 355 360 355 354 351 348 343 342 350 354 4 14 5 356 354
203 207 220 243 266 280 292 306 310 314 318 315 313 315 322 324 325 325 327 328 330 330 331 334 335 338 340 351 13 22 6 3 4 5 1 3 13 20 23 26 26 26 24
198 204 217 233 252 266 282 296 300 307 313 311 312 317 320 323 324 326 329 329 327 328 331 332 335 338 340 356 13 21 14 7 6 6 7 12 18 33 28 24 26 21 21
190 198 207 227 244 258 281 293 299 308 310 309 311 315 319 319 319 321 324 323 320 325 325 326 332 336 340 354 12 20 13 8 8 7 7 11 13 29 34 21 18 15 9
181 188 197 210 232 263 286 304 307 311 310 311 313 314 315 315 317 320 319 316 317 319 322 327 330 334 335 348 8 24 5 9 6 5 7 10 14 21 29 22 12 11 5
164 175 185 200 235 259 291 303 304 308 307 308 309 308 309 311 311 310 310 310 314 318 325 326 327 327 327 342 359 19 15 10 4 2 360 5 16 16 22 22 7 9 1
167 169 178 206 233 257 287 293 297 295 297 305 306 306 307 306 302 306 306 311 317 321 318 316 316 316 327 340 350 5 20 17 4 359 354 353 10 14 16 18 13 11 8
170 174 186 219 239 248 258 283 287 288 301 307 308 306 305 305 317 311 309 310 312 314 311 310 313 314 318 335 342 356 5 16 11 351 341 353 10 13 13 15 14 13 10
177 179 191 219 248 245 237 269 279 298 310 313 310 307 308 305 306 306 309 313 311 310 311 310 315 317 320 321 333 341 351 0 10 352 359 5 11 12 7 10 14 11 4
182 179 188 215 242 246 250 254 278 297 307 309 309 311 312 312 312 311 312 313 311 310 309 317 318 314 311 307 303 293 308 339 354 353 352 1 5 11 7 8 6 3 2
180 180 194 214 234 245 260 269 279 297 306 308 309 313 315 314 317 320 314 315 306 315 328 325 316 320 316 316 330 339 320 296 306 350 344 343 347 355 356 357 358 358 359
177 186 201 218 230 239 259 269 276 286 299 310 316 315 315 322 324 322 322 325 330 332 337 337 337 328 327 332 340 340 338 336 336 355 326 317 325 334 341 346 348 352 356